Stations météo

Publicité
Reims-Prunay, France (7072): Température de l'air & dewpoint: 25.10.2020 23:00:00 - 31.10.2020 23:00:00 (CET)Reims-Prunay, France (7072): Température de l'air 5cm: 25.10.2020 23:00:00 - 31.10.2020 23:00:00 (CET)Reims-Prunay, France (7072): Température de l'air -20cm & Température de l'air -100cm: 25.10.2020 23:00:00 - 31.10.2020 23:00:00 (CET)Reims-Prunay, France (7072): Vitesse du vent & gusts: 25.10.2020 23:00:00 - 31.10.2020 23:00:00 (CET)Reims-Prunay, France (7072): Direction du vent: 25.10.2020 23:00:00 - 31.10.2020 23:00:00 (CET)Reims-Prunay, France (7072): reduced air pressure: 25.10.2020 23:00:00 - 31.10.2020 23:00:00 (CET)Reims-Prunay, France (7072): visibility: 25.10.2020 23:00:00 - 31.10.2020 23:00:00 (CET)Reims-Prunay, France (7072): Ensoleillement: 25.10.2020 23:00:00 - 31.10.2020 23:00:00 (CET)Reims-Prunay, France (7072): Quantités de précipitations: 25.10.2020 23:00:00 - 31.10.2020 23:00:00 (CET)
Date & Time tt [°C] td [°C] tt 5cm [°C] tt -20cm [°C] tt -100cm [°C] ff [km/h] ff [knt] fx [km/h] fx [knt] dd ppp [hPa] vv [km] sd [min] rr [mm]
31.10.2020 23:00:00 16,7 11,6 15,7 13,4 14,0 19 10 29 16 SW 1016,5 20 0 0,0
31.10.2020 22:00:00 16,9 11,4 15,6 13,5 14,0 19 10 29 16 SSW 1016,6 20 0 0,0
31.10.2020 21:00:00 16,1 11,0 15,4 13,4 13,9 13 7 33 18 SSW 1016,4 20 0 0,0
31.10.2020 20:00:00 16,2 10,9 14,9 13,4 14,0 18 10 36 20 S 1016,5 20 0 0,0
31.10.2020 19:00:00 16,3 11,4 15,1 13,4 14,0 19 11 32 17 S 1016,6 20 0 0,0
31.10.2020 18:00:00 15,7 11,7 15,1 13,3 14,0 16 9 29 15 SSE 1016,5 20 0 0,0
31.10.2020 17:00:00 16,4 11,5 15,4 13,2 14,0 16 8 31 17 S 1017,2 20 5 0,0
31.10.2020 16:00:00 16,8 11,5 16,4 13,0 14,0 21 11 31 17 S 1017,3 20 46 0,0
31.10.2020 15:00:00 17,3 11,1 17,6 12,9 14,0 16 9 35 19 S 1017,6 20 60 0,0
31.10.2020 14:00:00 16,7 11,6 17,7 12,7 14,0 16 9 27 15 S 1018,1 20 57 0,0
31.10.2020 13:00:00 15,7 10,5 16,2 12,6 14,0 11 6 35 19 S 1018,7 20 53 0,0
31.10.2020 12:00:00 15,0 10,4 15,7 12,6 14,0 19 11 32 17 S 1019,2 20 60 0,0
31.10.2020 11:00:00 13,6 9,4 14,3 12,6 14,0 23 12 38 20 SSE 1020,3 20 60 0,0
31.10.2020 10:00:00 12,0 8,8 10,2 12,7 14,0 24 13 40 22 SSE 1021,1 20 44 0,0
31.10.2020 09:00:00 10,0 8,3 9,2 12,8 14,0 16 9 26 14 SSE 1022,0 20 49 0,0
31.10.2020 08:00:00 8,9 8,4 5,0 13,0 14,0 9 5 14 7 ESE 1022,4 20 5 0,0
31.10.2020 07:00:00 8,0 7,4 6,3 13,0 14,0 8 5 12 7 ESE 1022,7 12 0 0,0
31.10.2020 06:00:00 10,1 9,2 8,4 13,1 14,0 6 3 9 5 E 1023,2 15 0 0,0
31.10.2020 05:00:00 11,2 9,8 10,4 13,1 14,0 8 4 10 6 SE 1023,5 20 0 0,0
31.10.2020 04:00:00 11,7 10,6 11,5 13,2 14,0 7 4 9 5 E 1023,8 20 0 0,0
31.10.2020 03:00:00 12,0 10,7 11,7 13,2 14,1 6 3 9 5 E 1024,3 20 0 0,0
31.10.2020 02:00:00 12,2 10,8 11,9 13,2 14,1 5 3 8 5 E 1024,4 15 0 0,0
31.10.2020 01:00:00 12,5 10,6 12,0 13,2 14,0 2 1 6 3 E 1024,8 20 0 0,0
31.10.2020 00:00:00 13,3 10,3 12,7 13,3 14,0 5 3 12 7 SSW 1025,1 20 0 0,0
30.10.2020 23:00:00 13,7 10,1 13,1 13,3 14,0 9 5 16 9 SSW 1025,5 20 0 0,0
30.10.2020 22:00:00 13,8 10,2 13,3 13,3 14,0 13 7 18 10 SSW 1025,5 20 0 0,0
30.10.2020 21:00:00 13,9 10,3 13,4 13,3 14,0 12 6 20 11 SSW 1025,3 20 0 0,0
30.10.2020 20:00:00 14,0 10,2 13,4 13,3 14,0 13 7 19 11 SSW 1025,2 20 0 0,0
30.10.2020 19:00:00 14,0 10,4 13,5 13,3 14,0 11 6 18 10 SSW 1025,1 20 0 0,0
30.10.2020 18:00:00 14,2 10,8 13,7 13,3 14,0 12 6 22 12 SSW 1024,8 20 0 0,0
30.10.2020 17:00:00 14,4 10,8 14,1 13,3 14,0 13 7 21 11 SSW 1024,3 20 0 0,0
30.10.2020 16:00:00 15,0 10,8 14,8 13,2 14,0 11 6 24 13 SW 1024,4 20 0 0,0
30.10.2020 15:00:00 15,2 10,8 15,2 13,1 14,1 17 9 28 15 WSW 1024,3 20 0 0,0
30.10.2020 14:00:00 15,4 11,0 15,4 12,9 14,0 16 9 29 16 SW 1024,1 20 0 0,0
30.10.2020 13:00:00 15,4 12,0 15,9 12,8 14,0 18 10 34 19 SSW 1024,2 20 1 0,0
30.10.2020 12:00:00 15,5 11,9 15,5 12,7 14,1 20 11 30 16 SW 1024,2 20 4 0,0
30.10.2020 11:00:00 14,9 11,9 15,0 12,6 14,1 16 9 29 16 SW 1023,9 20 33 0,0
30.10.2020 10:00:00 14,2 11,9 13,3 12,6 14,1 16 9 29 15 SW 1023,9 20 1 0,0
30.10.2020 09:00:00 13,9 11,6 12,7 12,6 14,1 14 8 25 14 SW 1023,6 20 0 0,0
30.10.2020 08:00:00 13,6 11,3 12,5 12,6 14,1 16 9 30 16 SW 1023,1 20 0 0,0
30.10.2020 07:00:00 13,4 11,5 12,4 12,6 14,1 15 8 27 15 SW 1022,6 20 0 0,0
30.10.2020 06:00:00 13,5 11,5 12,5 12,6 14,1 21 11 32 18 SW 1022,5 10 0 0,0
30.10.2020 05:00:00 13,4 11,6 12,5 12,6 14,1 18 10 32 18 SW 1022,0 20 0 0,0
30.10.2020 04:00:00 13,2 12,1 12,5 12,5 14,1 13 7 30 16 SW 1021,9 19 0 0,4
30.10.2020 03:00:00 14,0 11,5 13,6 12,5 14,1 14 8 23 13 SW 1021,9 20 0 0,0
30.10.2020 02:00:00 14,2 11,5 13,5 12,5 14,1 18 10 29 15 SW 1021,5 20 0 0,0
30.10.2020 01:00:00 14,0 11,5 13,1 12,5 14,1 17 9 27 15 SW 1021,2 20 0 0,0
30.10.2020 00:00:00 13,7 11,9 12,9 12,5 14,1 14 8 27 14 SW 1021,3 20 0 0,0
29.10.2020 23:00:00 13,8 11,8 12,8 12,4 14,1 18 10 35 19 SW 1021,3 16 0 0,0
29.10.2020 22:00:00 14,1 11,4 13,4 12,4 14,1 20 11 33 18 SW 1021,4 20 0 0,0
29.10.2020 21:00:00 13,8 11,3 13,0 12,4 14,1 15 8 26 14 SW 1021,1 20 0 0,0
29.10.2020 20:00:00 13,4 11,5 12,6 12,4 14,1 15 8 27 14 SW 1020,9 20 0 0,0
29.10.2020 19:00:00 13,2 11,1 12,5 12,3 14,1 18 10 26 14 SSW 1020,6 20 0 0,0
29.10.2020 18:00:00 13,0 10,5 11,9 12,3 14,1 15 8 26 14 SSW 1020,7 20 0 0,0
29.10.2020 17:00:00 12,7 10,1 11,8 12,3 14,1 9 5 23 13 SSW 1020,6 20 0 0,0
29.10.2020 16:00:00 13,2 9,8 12,6 12,2 14,1 15 8 29 16 SW 1020,5 20 0 0,0
29.10.2020 15:00:00 13,6 9,8 13,5 12,1 14,1 13 7 26 14 SW 1020,9 20 0 0,0
29.10.2020 14:00:00 13,0 9,6 12,7 12,0 14,1 15 8 26 14 SW 1020,9 20 0 0,0
29.10.2020 13:00:00 13,2 9,3 12,7 11,9 14,1 16 8 34 18 WSW 1020,9 20 0 0,0
29.10.2020 12:00:00 12,9 9,0 13,0 11,8 14,1 22 12 37 20 WSW 1020,9 20 0 0,0
29.10.2020 11:00:00 12,7 9,1 12,8 11,8 14,2 20 11 32 18 WSW 1020,7 20 0 0,0
29.10.2020 10:00:00 12,3 9,1 12,0 11,9 14,2 19 10 41 22 WSW 1020,1 20 7 0,0
29.10.2020 09:00:00 11,5 8,7 10,3 11,9 14,1 15 8 31 17 W 1019,6 20 3 0,0
29.10.2020 08:00:00 10,7 8,1 9,6 12,0 14,2 16 9 31 17 W 1018,9 20 0 0,0
29.10.2020 07:00:00 10,4 8,0 9,4 12,1 14,2 18 10 31 17 W 1017,6 20 0 0,0
29.10.2020 06:00:00 10,2 7,8 8,7 12,2 14,2 15 8 26 14 W 1016,8 20 0 0,0
29.10.2020 05:00:00 10,2 7,8 8,9 12,2 14,2 16 9 34 18 W 1015,9 20 0 0,0
29.10.2020 04:00:00 10,9 7,9 9,5 12,2 14,2 17 9 29 16 W 1015,2 20 0 0,0
29.10.2020 03:00:00 10,6 8,5 9,4 12,3 14,2 15 8 38 21 WSW 1014,6 20 0 1,9
29.10.2020 02:00:00 12,0 9,6 10,4 12,3 14,2 21 11 40 21 W 1014,6 11 0 1,6
29.10.2020 01:00:00 11,3 9,7 10,4 12,3 14,2 13 7 40 22 W 1013,8 9 0 1,6
29.10.2020 00:00:00 12,6 8,7 10,9 12,3 14,2 25 13 47 25 WSW 1013,3 19 0 0,0
28.10.2020 23:00:00 13,2 8,7 12,4 12,4 14,2 27 14 47 25 WSW 1012,8 20 0 0,0
28.10.2020 22:00:00 13,2 8,9 12,6 12,4 14,2 28 15 53 29 WSW 1011,9 20 0 0,0
28.10.2020 21:00:00 13,4 8,9 12,6 12,4 14,2 32 17 51 28 SW 1011,6 20 0 0,0
28.10.2020 20:00:00 13,2 8,9 12,5 12,4 14,2 26 14 50 27 SW 1011,5 20 0 0,0
28.10.2020 19:00:00 13,0 8,9 11,9 12,4 14,2 26 14 45 24 SSW 1011,3 20 0 0,0
28.10.2020 18:00:00 12,6 9,1 11,2 12,4 14,2 19 10 45 24 S 1011,3 20 0 0,0
28.10.2020 17:00:00 13,2 8,9 12,7 12,4 14,2 24 13 48 26 SSW 1011,6 20 13 0,0
28.10.2020 16:00:00 13,6 8,4 13,2 12,3 14,2 28 15 52 28 SSW 1011,8 20 0 0,0
28.10.2020 15:00:00 13,7 8,5 13,6 12,3 14,2 26 14 54 29 SW 1012,1 20 0 0,0
28.10.2020 14:00:00 13,6 8,4 13,6 12,2 14,2 21 11 40 21 SW 1012,3 20 0 0,0
28.10.2020 13:00:00 13,4 8,2 14,0 12,1 14,3 26 14 45 24 SW 1013,0 20 0 0,0
28.10.2020 12:00:00 13,4 8,7 13,9 12,0 14,3 23 12 47 26 SW 1012,6 20 10 0,0
28.10.2020 11:00:00 13,0 8,9 13,9 12,0 14,3 22 12 36 20 SW 1012,6 20 32 0,0
28.10.2020 10:00:00 12,6 9,1 13,6 12,0 14,2 21 11 32 18 SW 1012,2 20 60 0,0
28.10.2020 09:00:00 11,9 9,3 9,9 12,0 14,3 16 9 29 16 SW 1011,7 20 30 0,0
28.10.2020 08:00:00 10,9 9,2 9,1 12,1 14,3 13 7 22 12 SW 1010,8 20 9 0,0
28.10.2020 07:00:00 11,4 9,6 9,6 12,1 14,3 10 6 26 14 WSW 1009,7 20 0 0,4
28.10.2020 06:00:00 11,8 10,4 10,9 12,1 14,3 14 8 27 15 WSW 1008,9 9 0 1,4
28.10.2020 05:00:00 11,9 10,8 10,8 12,1 14,3 12 6 17 9 SW 1008,2 20 0 0,0
28.10.2020 04:00:00 12,0 10,7 10,9 12,0 14,3 12 6 19 10 SSW 1007,5 20 0 0,2
28.10.2020 03:00:00 11,7 10,3 10,4 12,0 14,3 13 7 18 10 SSW 1007,6 10 0 0,2
28.10.2020 02:00:00 11,8 10,4 10,9 12,0 14,3 8 4 22 12 WSW 1007,3 20 0 0,2
28.10.2020 01:00:00 12,3 10,9 11,5 12,0 14,3 13 7 27 14 SW 1007,2 12 0 0,2
28.10.2020 00:00:00 12,5 11,4 11,6 12,0 14,3 9 5 30 16 SW 1006,4 20 0 0,2
27.10.2020 23:00:00 12,1 11,2 10,9 12,0 14,3 19 10 42 23 SSW 1006,1 8 0 0,2
27.10.2020 22:00:00 11,6 10,5 10,5 12,0 14,3 28 15 50 27 SSW 1005,7 7 0 0,0
27.10.2020 21:00:00 11,1 10,0 10,3 12,0 14,3 26 14 50 27 SSW 1005,2 8 0 0,2
27.10.2020 20:00:00 10,9 9,8 10,1 12,0 14,3 28 15 55 30 S 1005,3 8 0 0,0
27.10.2020 19:00:00 10,8 9,4 10,0 12,0 14,3 29 16 57 31 S 1005,6 6 0 0,4
27.10.2020 18:00:00 10,8 9,4 9,9 11,9 14,3 29 16 50 27 S 1005,9 3,9 0 0,0
27.10.2020 17:00:00 10,9 8,8 10,0 11,9 14,3 22 12 43 23 S 1006,0 13 0 0,0
27.10.2020 16:00:00 11,6 8,6 10,3 11,8 14,3 21 11 40 22 S 1006,6 19 0 0,2
27.10.2020 15:00:00 11,8 8,3 11,7 11,7 14,3 20 11 42 23 S 1007,1 20 0 0,0
27.10.2020 14:00:00 11,9 8,0 12,1 11,6 14,3 20 11 40 22 S 1007,7 20 0 0,0
27.10.2020 13:00:00 11,1 7,4 12,1 11,6 14,4 21 11 39 21 SSW 1008,6 20 0 0,0
27.10.2020 12:00:00 10,5 7,0 11,0 11,5 14,3 20 11 34 19 SSW 1009,3 20 2 0,0
27.10.2020 11:00:00 10,1 6,6 10,1 11,5 14,4 21 11 34 18 SSW 1009,4 20 2 0,0
27.10.2020 10:00:00 9,5 6,6 9,6 11,5 14,4 23 13 35 19 SW 1009,4 20 22 0,0
27.10.2020 09:00:00 9,1 6,5 8,8 11,5 14,4 16 9 27 15 SSW 1008,8 20 21 0,0
27.10.2020 08:00:00 8,8 6,4 8,5 11,5 14,4 13 7 27 15 SW 1008,7 20 0 0,0
27.10.2020 07:00:00 8,9 6,9 8,6 11,6 14,4 8 5 21 11 SSW 1008,2 20 0 0,0
27.10.2020 06:00:00 9,2 7,1 8,5 11,6 14,4 11 6 22 12 SSW 1007,8 20 0 0,0
27.10.2020 05:00:00 8,9 7,0 6,5 11,7 14,4 10 5 21 11 SSW 1007,3 20 0 0,0
27.10.2020 04:00:00 8,0 6,3 6,1 11,9 14,4 8 4 18 10 SW 1007,2 20 0 0,0
27.10.2020 03:00:00 7,6 6,2 5,2 12,0 14,4 11 6 19 10 WSW 1007,2 20 0 0,0
27.10.2020 02:00:00 7,7 6,0 6,1 12,1 14,4 10 6 20 11 SW 1007,0 20 0 0,0
27.10.2020 01:00:00 8,1 6,2 6,5 12,2 14,4 13 7 19 11 SW 1007,0 20 0 0,0
27.10.2020 00:00:00 8,4 6,5 6,9 12,3 14,4 10 5 21 12 SW 1007,0 20 0 0,0
26.10.2020 23:00:00 8,7 6,5 7,3 12,4 14,4 12 7 19 10 SSW 1006,9 20 0 0,0
26.10.2020 22:00:00 9,1 6,7 7,5 12,5 14,4 13 7 29 16 SSW 1006,6 20 0 0,0
26.10.2020 21:00:00 9,5 6,8 8,2 12,6 14,4 16 9 32 18 SSW 1006,1 20 0 0,0
26.10.2020 20:00:00 9,9 7,0 7,8 12,7 14,4 17 9 26 14 SSW 1005,7 20 0 0,0
26.10.2020 19:00:00 9,8 6,7 7,4 12,8 14,4 12 7 22 12 SSW 1005,7 20 0 0,0
26.10.2020 18:00:00 9,9 6,6 7,9 12,8 14,4 13 7 21 11 SW 1005,0 20 6 0,0
26.10.2020 17:00:00 11,0 6,9 9,0 12,7 14,4 11 6 41 22 SW 1004,7 20 35 0,4
26.10.2020 16:00:00 13,6 6,7 12,7 12,6 14,4 17 9 42 23 SW 1004,4 20 31 1,7
26.10.2020 15:00:00 14,0 6,4 12,7 12,5 14,4 26 14 44 24 SW 1004,1 20 43 0,0
26.10.2020 14:00:00 13,3 6,4 13,6 12,3 14,4 24 13 45 24 SW 1004,2 20 53 0,0
26.10.2020 13:00:00 12,7 5,8 12,4 12,3 14,4 29 16 46 25 WSW 1004,4 20 47 0,0
26.10.2020 12:00:00 12,4 6,4 12,8 12,3 14,4 24 13 44 24 WSW 1004,8 20 50 0,0
26.10.2020 11:00:00 11,5 6,8 13,2 12,2 14,4 23 12 37 20 SW 1004,8 20 60 0,0
26.10.2020 10:00:00 10,6 7,1 12,1 12,3 14,4 20 11 31 17 SW 1005,2 20 60 0,0
26.10.2020 09:00:00 9,4 6,8 7,6 12,4 14,4 14 8 26 14 SW 1005,7 20 13 0,0
26.10.2020 08:00:00 8,7 6,7 7,9 12,5 14,4 13 7 33 18 SSW 1004,8 20 0 0,0
26.10.2020 07:00:00 8,8 6,9 7,6 12,6 14,4 15 8 23 12 S 1004,1 20 0 0,0
26.10.2020 06:00:00 9,3 7,4 8,2 12,7 14,4 16 9 26 14 SSW 1003,6 20 0 0,0
26.10.2020 05:00:00 9,0 7,6 7,0 12,7 14,4 6 3 16 9 SW 1003,4 20 0 0,0
26.10.2020 04:00:00 9,0 7,3 7,5 12,8 14,4 7 4 21 11 SW 1003,2 20 0 0,0
26.10.2020 03:00:00 9,7 7,6 8,4 12,9 14,4 12 7 19 10 SSW 1003,4 20 0 0,0
26.10.2020 02:00:00 9,9 8,0 8,7 13,0 14,4 14 8 24 13 SW 1002,9 20 0 0,0
26.10.2020 01:00:00 10,4 8,5 9,1 13,0 14,4 12 6 22 12 WSW 1002,4 20 0 0,0
26.10.2020 00:00:00 10,5 8,9 9,5 13,1 14,4 10 5 16 8 SW 1003,1 20 0 0,0
25.10.2020 23:00:00 11,0 9,4 10,1 13,1 14,4 13 7 21 11 SW 1003,3 20 0 0,4

tt = Température de l'air
td = dewpoint
tt 5cm = Température de l'air 5cm
tt -20cm = Température de l'air -20cm
tt -100cm = Température de l'air -100cm
ff = Vitesse du vent
fx = gusts
dd = Direction du vent
ppp = reduced air pressure
vv = visibility
sd = Ensoleillement
rr = Quantités de précipitations

stations d'obs. à proximité